Target Driving Optimization

THE REASON WHY WE CONSIDERED OURSELF THE BEST SEO COMPANY IN MALAYSIA

CURRENTLY THE MALAYSIAN SEO COMPANY WITH MOST RESULT
*RESULT MIGHT BE VARY ON DIFFERNT PC
 

Total Records: 26999

No. Keywords Company URL Rank Updated On
26501 Wire Mesh Supply www.hdd.com.my 5 2017-06-29 12:13:47 PM
26502 Wire Mesh Tiram www.hardware2u.com.my 2 2018-06-18 11:36:46 AM
26503 Wire Mesh Tiram www.hardware2u.com.my 3 2018-06-18 11:36:57 AM
26504 Wire Mesh Tiram www.sunlighthardware.com 4 2018-06-18 11:37:09 AM
26505 Wire Netting Johor www.chuanhenghardware.com 2 2017-04-14 12:03:28 PM
26506 Wire Netting Johor www.chengleehardware.com 3 2017-04-14 12:03:49 PM
26507 Wire Netting Johor www.vadean.com.my 4 2017-04-14 12:04:22 PM
26508 Wire Netting Johor www.vadean.com.my 5 2017-04-14 12:04:36 PM
26509 Wire Netting Johor www.soonshing.com.my 6 2017-04-14 12:05:15 PM
26510 Wire Netting KL www.nswhardware.com.my 1 2017-04-14 12:07:37 PM
26511 Wire Netting Klang www.nswhardware.com.my 1 2019-01-07 10:19:16 AM
26512 Wire Netting Klang www.nswhardware.com.my 2 2019-01-07 10:19:32 AM
26513 Wire Netting Klang nswhardware.n.my 4 2019-01-07 10:19:45 AM
26514 Wire Netting Kluang wiremesh.n.my 3 2019-01-07 10:00:30 AM
26515 Wire Netting Kluang m.wiremesh.com.my 4 2019-01-07 10:00:56 AM
26516 Wire Netting Kluang m.wiremesh.com.my 5 2019-01-07 10:01:13 AM
26517 Wire Netting Masai www.nikorex.com 4 2019-01-07 09:40:21 AM
26518 Wire Netting Muar www.vadean.com.my 6 2019-01-07 09:38:19 AM
26519 Wire Netting Nusajaya m.chengleehardware.com 2 2019-01-07 09:35:37 AM
26520 Wire Netting Nusajaya www.chengleehardware.com 3 2019-01-07 09:35:46 AM
26521 Wire Netting Nusajaya www.hardware2u.com.my 6 2019-01-07 09:36:05 AM
26522 Wire Netting Nusajaya www.chunhoe.com.my 5 2019-01-07 09:35:57 AM
26523 Wire Netting Penang www.kamensteel.com.my 6 2017-04-14 12:09:12 PM
26524 Wire Netting Pengerang www.vadean.com.my 6 2019-01-07 09:32:54 AM
26525 Wire Netting Petaling www.hdd.com.my 1 2019-01-07 10:16:45 AM
26526 Wire Netting Petaling www.hdd.com.my 2 2019-01-07 10:16:53 AM
26527 Wire Netting Plentong www.vadean.com.my 1 2019-01-07 09:36:34 AM
26528 Wire Netting Plentong nikorex.n.my 2 2019-01-07 09:36:48 AM
26529 Wire Netting Plentong m.chengleehardware.com 3 2019-01-07 09:37:02 AM
26530 Wire Netting Plentong www.hardware2u.com.my 4 2019-01-07 09:37:19 AM
26531 Wire Netting Plentong www.chuanhenghardware.com 6 2019-01-07 09:37:39 AM
26532 Wire Netting Puchong m.tecoline.com.my 2 2019-01-07 10:17:36 AM
26533 Wire Netting Segamat www.y3display.com 3 2019-01-07 09:41:09 AM
26534 Wire Netting Selangor www.nswhardware.com.my 1 2017-04-14 12:08:07 PM
26535 Wire Netting Selangor www.hdd.com.my 4 2017-04-14 12:08:31 PM
26536 Wire Netting Selangor www.hdd.com.my 5 2017-04-14 12:08:40 PM
26537 Wire Netting Senai www.kamensteel.com.my 4 2019-01-07 09:32:07 AM
26538 Wire Netting Setapak www.nswhardware.com.my 3 2019-01-07 10:18:47 AM
26539 Wire Netting Skudai www.y3display.com 1 2019-01-04 12:53:35 PM
26540 Wire Netting Skudai www.innoreliance.com.my 3 2019-01-04 12:53:47 PM
26541 Wire Netting Skudai m.chengleehardware.com 4 2019-01-04 12:54:08 PM
26542 Wire Netting Tiram www.hardware2u.com.my 1 2019-01-04 12:55:59 PM
26543 Wire Netting Tiram www.hardware2u.com.my 2 2019-01-04 01:01:19 PM
26544 Wire Netting Tiram www.sunlighthardware.com 4 2019-01-04 01:01:44 PM
26545 Wire Ropes Johor www.wahyong.com.my 1 2017-06-06 01:27:07 PM
26546 Wire Ropes Johor www.wahyong.com.my 2 2017-06-06 01:27:32 PM
26547 Wire Ropes Malacca www.alliance-supplies.com 6 2017-06-22 11:17:10 AM
26548 Wire Ropes Melaka www.alliance-supplies.com 2 2017-06-06 01:30:18 PM
26549 Wire Ropes Melaka www.alliance-supplies.com 3 2017-06-06 01:30:31 PM
26550 Wire Shelving JB www.besdeal.com.my 1 2016-08-24 02:26:51 PM
26551 Wire Shelving JB www.besdeal.com.my 2 2016-08-24 02:27:14 PM
26552 Wire Shelving JB www.besdealindustry.com 3 2016-08-24 02:27:39 PM
26553 Wire Shelving JB www.msbstorage.com 5 2016-08-24 02:28:11 PM
26554 Wire Shelving Supplier www.besdealindustry.com 5 2016-08-24 02:25:18 PM
26555 Wire Shelving Supplier www.besdeal.com.my 4 2016-08-24 02:25:51 PM
26556 Wire Snake supplier www.artrich.com.my 1 2016-02-19 10:54:15 AM
26557 Wire Snake supplier www.asiastarfurniture.com.my 7 2016-02-19 10:54:33 AM
26558 Wire Wheel Johor www.southernstate.com.my 1 2017-07-13 12:32:38 PM
26559 Wire Wheel Johor www.southernstate.com.my 2 2017-07-13 12:32:47 PM
26560 Wire Wheel Johor www.brilliancetrading.com 4 2017-07-13 12:33:01 PM
26561 Wire Wheel Johor www.rsmarinesb.com 5 2017-07-13 12:33:22 PM
26562 Wire Wheel Johor www.san-suriagym.com 6 2017-07-13 12:33:48 PM
26563 Wire Wheel KL www.actiontool.com.my 1 2017-07-13 01:07:34 PM
26564 Wire Wheel Selangor www.actiontool.com.my 1 2017-07-13 12:34:31 PM
26565 Wire Wheel Selangor www.actiontool.com.my 2 2017-07-13 12:34:39 PM
26566 Wire Wheel Selangor m.actiontool.com.my 3 2017-07-13 12:34:55 PM
26567 Wireless CCTV Johor www.scemarketing.com 4 2017-05-03 06:36:36 PM
26568 Wireless CCTV Johor www.knightsecurity.com.my 5 2017-05-03 06:36:48 PM
26569 Wireless Meter Johor www.elsotech.com.my 3 2018-04-05 09:22:19 AM
26570 Wireless Meter Johor www.saturnpyro.com 2 2018-04-05 09:22:35 AM
26571 Wireless Meter Johor ecinstruments.n.my 6 2018-04-05 09:22:48 AM
26572 Wireless Meter Kinabalu www.hannamalaysia.com 2 2018-04-05 09:24:58 AM
26573 Wireless Meter KL www.pacificradio.com.my 1 2018-04-05 09:25:45 AM
26574 Wireless Meter KL www.pacificradio.com.my 2 2018-04-05 09:25:55 AM
26575 Wireless Meter Malaysia www.pacificradio.com.my 1 2018-04-05 09:21:55 AM
26576 Wireless Meter Penang www.hannamalaysia.com 4 2018-04-05 09:23:17 AM
26577 Wireless Meter Penang www.elsotech.com.my 6 2018-04-05 09:23:30 AM
26578 Wireless Meter Sabah www.hannamalaysia.com 1 2018-04-05 09:23:59 AM
26579 Wireless Meter Sabah hannamalaysia.n.my 2 2018-04-05 09:24:14 AM
26580 Wireless Meter Selangor www.hannamalaysia.com 1 2018-04-05 09:25:24 AM
26581 Wireless Meter Subang www.inverpower.com.my 2 2018-04-05 09:26:28 AM
26582 Wireless Meter Supplier www.pacificradio.com.my 1 2018-04-04 04:47:51 PM
26583 Wireless Meter Supplier www.pacificradio.com.my 2 2018-04-04 04:48:02 PM
26584 Wireless Meter Supply www.pacificradio.com.my 6 2018-04-05 09:21:34 AM
26585 Wireless Microphone Johor www.karaokestore.com.my 1 2017-06-09 10:05:22 AM
26586 Wireless Microphone Johor www.thcomm.com.my 2 2017-06-09 10:05:39 AM
26587 Wireless Microphone Johor www.hiumusical.com 5 2017-06-09 10:05:54 AM
26588 Wireless Microphone Johor www.voltech.com.my 6 2017-06-09 10:06:06 AM
26589 Wireless Scanner Johor www.lksoft.com.my 3 2018-03-16 11:51:45 AM
26590 Wireless Scanner Johor www.nexusdigital.com.my 5 2018-03-16 11:52:03 AM
26591 Wireless Scanner Johor www.sensorik-auto.com 6 2018-03-16 11:52:17 AM
26592 Wireless Scanner KL www.aesoft.com.my 4 2018-03-16 11:52:36 AM
26593 Wireless Scanner KL www.nexusdigital.com.my 6 2018-03-16 11:52:49 AM
26594 Wireless Scanner Puchong www.nexusdigital.com.my 1 2018-03-16 11:56:20 AM
26595 Wireless Scanner Puchong www.cci.com.my 4 2018-03-16 11:56:41 AM
26596 Wireless Scanner Selangor www.aesoft.com.my 2 2018-03-16 11:53:23 AM
26597 Wireless Scanner Selangor www.bsgmalaysia.com.my 4 2018-03-16 11:53:39 AM
26598 Wireless Scanner Selangor www.bsgmalaysia.com.my 3 2018-03-16 11:53:50 AM
26599 Wireless Scanner Subang www.bsgmalaysia.com.my 1 2018-03-16 11:55:47 AM
26600 Wireless Scanner Subang vtone.com.my 4 2018-03-16 11:55:59 AM